{"data":{"norad_id":66695,"epoch":"2026-09-20T04:28:45.029856Z","epoch_age_seconds":148075,"freshness":"FRESH","line1":"1 66695U 25276AF  26263.18663229  .00003098  00000+0  13967-3 0  9998","line2":"2 66695  97.4117 335.5925 0002171  64.6906 295.4555 15.21769558 44885","mean_motion":15.21769558,"eccentricity":0.0002171,"inclination_deg":97.4117,"raan_deg":335.5925,"arg_perigee_deg":64.6906,"mean_anomaly_deg":295.4555,"bstar":0.00013967,"rev_number":4488,"period_min":94.626679343785,"perigee_km":499.00963298863,"apogee_km":501.99633847043,"semimajor_km":6878.6399857295,"source":"CELESTRAK","updated_at":"2026-09-21T09:00:16.128022Z"}}